This demonstration page uses our WeatherBlox Daily Observations layout. Learn more.

Left ArrowRight Arrow

44.31136, -96.79839

Hourly Observations for August 7, 2017

Temp ( °F °C ) Dew Point ( °F °C ) Humidity (%) Winds ( mph kmh ) Pressure ( in mb ) Visibility ( mi km ) Precip ( " mm )
12:56 am 00:56 Cloudy 59 15 57 13.9 93 93 Calm 30.16 1021 N/A 0.00 0.00
1:56 am 01:56 Cloudy 58 14.4 57 13.9 97 97 Calm 30.16 1021 N/A 0.00 0.00
2:56 am 02:56 Clear 56 13.3 55 12.8 97 97 NNW 6 9 30.16 1022 N/A 0.00 0.00
3:56 am 03:56 Clear 55 12.8 53 11.7 93 93 NW 3 6 30.18 1022 N/A 0.00 0.00
4:56 am 04:56 Clear 54 12.2 53 11.7 97 97 Calm 30.19 1022 N/A 0.00 0.00
6:56 am 06:56 Sunny 52 11.1 51 10.6 97 97 Calm 30.22 1024 N/A 0.00 0.00
7:56 am 07:56 Sunny 56 13.3 55 12.8 97 97 Calm 30.23 1024 N/A 0.00 0.00
8:56 am 08:56 Sunny 62 16.7 57 13.9 84 84 N 5 7 30.23 1024 N/A 0.00 0.00
9:56 am 09:56 Sunny 66 18.9 57 13.9 73 73 N 6 9 30.23 1024 N/A 0.00 0.00
10:56 am 10:56 Sunny 69 20.6 56 13.3 63 63 VRB 6 9 30.24 1024 N/A 0.00 0.00
11:56 am 11:56 Sunny 71 21.7 57 13.9 61 61 VRB 6 9 30.24 1024 N/A 0.00 0.00
12:56 pm 12:56 Mostly Cloudy 71 21.7 56 13.3 59 59 N 5 7 30.24 1024 N/A 0.00 0.00
1:56 pm 13:56 Mostly Sunny 74 23.3 56 13.3 54 54 VRB 5 7 30.23 1024 N/A 0.00 0.00
2:56 pm 14:56 Sunny 75 23.9 54 12.2 48 48 VRB 5 7 30.22 1024 N/A 0.00 0.00
3:56 pm 15:56 Mostly Cloudy 75 23.9 55 12.8 50 50 N 6 9 30.22 1023 N/A 0.00 0.00
4:56 pm 16:56 Mostly Cloudy 75 23.9 54 12.2 48 48 ENE 6 9 30.22 1023 N/A 0.00 0.00
5:56 pm 17:56 Sunny 75 23.9 54 12.2 48 48 NE 3 6 30.21 1023 N/A 0.00 0.00
6:56 pm 18:56 Sunny 75 23.9 53 11.7 46 46 Calm 30.21 1023 N/A 0.00 0.00
7:56 pm 19:56 Sunny 73 22.8 52 11.1 48 48 NE 3 6 30.20 1023 N/A 0.00 0.00
8:56 pm 20:56 Clear 68 20 56 13.3 65 65 S 3 6 30.21 1023 N/A 0.00 0.00
9:56 pm 21:56 Clear 67 19.4 55 12.8 66 66 Calm 30.23 1024 N/A 0.00 0.00
10:56 pm 22:56 Clear 65 18.3 56 13.3 73 73 Calm 30.24 1024 N/A 0.00 0.00
11:56 pm 23:56 Clear 63 17.2 56 13.3 78 78 Calm 30.24 1024 N/A 0.00 0.00

Powered by AerisWeather